Weather reports worldwide

Advertisment
Lulea/Kallax, Sweden (2186): temperature & dewpoint: 09.11.2018 06:00:00 - 15.11.2018 06:00:00 (CET)Lulea/Kallax, Sweden (2186): wind speed & gusts: 09.11.2018 06:00:00 - 15.11.2018 06:00:00 (CET)Lulea/Kallax, Sweden (2186): wind direction: 09.11.2018 06:00:00 - 15.11.2018 06:00:00 (CET)Lulea/Kallax, Sweden (2186): reduced air pressure: 09.11.2018 06:00:00 - 15.11.2018 06:00:00 (CET)Lulea/Kallax, Sweden (2186): visibility: 09.11.2018 06:00:00 - 15.11.2018 06:00:00 (CET)Lulea/Kallax, Sweden (2186): precipitation: 09.11.2018 06:00:00 - 15.11.2018 06:00:00 (CET)
Date & Time tt [°C] td [°C] ff [km/h] ff [kn] fx [km/h] fx [kn] dd ppp [hPa] vv [km] rr [mm]
15.11.2018 06:00:00 4,0 3,0 16 9 - - SSW - 10 -
15.11.2018 05:00:00 4,0 3,1 21 11 32 18 SSW 1015,5 10 0,0
15.11.2018 04:00:00 4,0 3,4 18 10 29 16 S 1015,8 10 0,0
15.11.2018 03:00:00 4,1 3,8 16 9 29 16 S 1016,7 8 0,0
15.11.2018 02:00:00 3,8 3,7 16 9 32 18 SSW 1016,9 6 0,0
15.11.2018 01:00:00 3,5 3,1 24 13 32 18 S 1017,3 10 0,0
15.11.2018 00:00:00 3,7 3,4 13 7 22 12 S 1017,4 10 0,0
14.11.2018 23:00:00 2,5 2,2 5 3 14 8 S 1017,5 10 0,0
14.11.2018 22:00:00 2,3 2,0 9 5 18 10 S 1017,8 10 0,0
14.11.2018 21:00:00 1,0 0,9 9 5 18 10 SSE 1018,0 9 0,0
14.11.2018 20:00:00 -2,5 -2,8 2 1 11 6 S 1018,0 0,2 0,0
14.11.2018 19:00:00 -2,7 -3,0 0 0 4 2 N 1018,0 0,3 0,0
14.11.2018 18:00:00 -2,6 -2,7 0 0 4 2 N 1018,0 4,1 0,0
14.11.2018 17:00:00 -2,2 -2,5 0 0 4 2 N 1017,8 10 0,0
14.11.2018 16:00:00 -1,9 -2,2 0 0 0 0 N 1017,8 10 0,0
14.11.2018 15:00:00 -1,5 -1,6 0 0 4 2 N 1017,6 10 0,0
14.11.2018 14:00:00 -0,8 -1,4 0 0 7 4 N 1017,2 10 0,0
14.11.2018 13:00:00 1,0 0,0 0 0 - - N - 10 -
14.11.2018 12:00:00 0,9 0,2 0 0 0 0 N 1016,5 10 0,0
14.11.2018 11:00:00 0,3 -0,1 0 0 7 4 N 1016,0 10 0,0
14.11.2018 10:00:00 -0,9 -1,2 5 3 7 4 NW 1015,4 10 0,0
14.11.2018 09:00:00 -2,1 -2,2 0 0 7 4 N 1014,7 10 0,0
14.11.2018 08:00:00 -1,4 -1,7 2 1 7 4 - 1014,0 10 0,0
14.11.2018 07:00:00 -0,4 -0,7 4 2 11 6 - 1013,2 10 0,0
14.11.2018 06:00:00 -0,7 -1,1 5 3 7 4 NNW 1012,8 10 0,0
14.11.2018 05:00:00 0,1 -0,3 0 0 7 4 N 1012,2 10 0,0
14.11.2018 04:00:00 0,4 0,0 5 3 11 6 NNW 1011,5 10 0,0
14.11.2018 03:00:00 0,7 0,1 9 5 14 8 NW 1011,1 10 0,0
14.11.2018 02:00:00 1,1 0,7 8 4 11 6 NW 1010,4 10 0,0
14.11.2018 01:00:00 1,2 0,6 8 4 14 8 NNW 1010,0 10 0,0
14.11.2018 00:00:00 1,3 0,7 11 6 14 8 NNW 1009,5 10 0,0
13.11.2018 23:00:00 1,8 1,1 11 6 14 8 NW 1009,0 10 0,0
13.11.2018 22:00:00 1,8 1,2 11 6 14 8 NW 1008,3 10 0,0
13.11.2018 21:00:00 1,8 0,9 13 7 18 10 NW 1007,7 10 0,0
13.11.2018 20:00:00 2,7 1,9 15 8 22 12 NNW 1007,1 10 0,0
13.11.2018 19:00:00 3,6 2,6 18 10 22 12 NW 1006,6 45 0,0
13.11.2018 18:00:00 3,8 2,8 15 8 22 12 NW 1006,1 10 0,0
13.11.2018 17:00:00 - - - - - - - - - -
13.11.2018 16:00:00 4,1 3,4 15 8 22 12 WNW 1004,9 10 0,0
13.11.2018 15:00:00 4,5 3,3 15 8 22 12 WNW 1004,5 10 0,0
13.11.2018 14:00:00 4,9 3,9 15 8 22 12 WNW 1004,0 10 0,0
13.11.2018 13:00:00 5,0 4,3 11 6 22 12 W 1003,7 8 0,0
13.11.2018 12:00:00 6,2 4,7 11 6 18 10 W 1003,5 10 0,0
13.11.2018 11:00:00 6,8 5,7 9 5 14 8 WSW 1003,2 10 0,0
13.11.2018 10:00:00 6,0 5,4 2 1 14 8 - 1003,4 10 0,0
13.11.2018 09:00:00 6,0 5,4 5 3 18 10 SSW 1003,3 10 0,0
13.11.2018 08:00:00 6,0 5,4 9 5 18 10 SSW 1003,5 10 0,0
13.11.2018 07:00:00 6,1 5,7 11 6 22 12 S 1003,7 8 0,0
13.11.2018 06:00:00 6,2 5,6 11 6 25 14 SSW 1004,2 10 0,0
13.11.2018 05:00:00 6,0 5,6 15 8 22 12 S 1004,6 9 0,0
13.11.2018 04:00:00 6,0 5,3 11 6 22 12 S 1005,1 10 0,0
13.11.2018 03:00:00 6,1 5,7 13 7 22 12 S 1005,8 8 0,0
13.11.2018 02:00:00 6,2 5,8 13 7 22 12 S 1006,4 8 0,0
13.11.2018 01:00:00 6,1 5,7 16 9 29 16 S 1006,9 6 0,0
13.11.2018 00:00:00 6,0 5,7 16 9 29 16 S 1007,3 7 0,0
12.11.2018 23:00:00 6,1 5,8 21 11 29 16 S 1007,8 10 0,0
12.11.2018 22:00:00 5,8 5,5 18 10 29 16 SSW 1008,2 5 0,0
12.11.2018 21:00:00 5,9 5,5 24 13 40 21 S 1008,7 7 0,0
12.11.2018 20:00:00 5,8 5,4 24 13 40 21 S 1009,1 10 0,0
12.11.2018 19:00:00 5,6 5,2 24 13 40 21 S 1009,9 8 0,0
12.11.2018 18:00:00 5,4 4,8 22 12 36 19 S 1010,8 6 0,0
12.11.2018 17:00:00 5,4 4,8 26 14 40 21 S 1011,5 10 0,0
12.11.2018 16:00:00 5,2 4,6 24 13 32 18 S 1012,3 10 0,0
12.11.2018 15:00:00 5,0 4,6 24 13 32 18 S 1013,0 4,0 0,2
12.11.2018 14:00:00 5,1 4,5 22 12 32 18 S 1013,8 6 0,2
12.11.2018 13:00:00 5,1 4,4 21 11 32 18 S 1014,5 10 0,2
12.11.2018 12:00:00 5,0 4,6 22 12 32 18 S 1015,2 6 0,0
12.11.2018 11:00:00 4,9 4,5 26 14 36 19 S 1015,8 8 0,0
12.11.2018 10:00:00 5,0 4,3 22 12 36 19 S 1016,3 10 0,1
12.11.2018 09:00:00 5,1 4,2 21 11 36 19 S 1016,7 10 0,0
12.11.2018 08:00:00 5,3 4,4 22 12 32 18 S 1017,1 10 0,0
12.11.2018 07:00:00 5,3 4,3 16 9 32 18 S 1017,3 10 0,0
12.11.2018 06:00:00 5,2 4,6 16 9 25 14 S 1017,6 10 0,0
12.11.2018 05:00:00 5,0 4,6 21 11 29 16 S 1017,9 3,0 0,2
12.11.2018 04:00:00 4,9 4,5 18 10 29 16 S 1018,2 2,8 0,3
12.11.2018 03:00:00 4,9 4,3 18 10 25 14 S 1018,5 7 0,0
12.11.2018 02:00:00 4,9 4,2 15 8 25 14 S 1018,9 10 0,0
12.11.2018 01:00:00 4,8 4,4 16 9 29 16 S 1019,2 4,6 0,7
12.11.2018 00:00:00 4,7 4,6 21 11 36 19 S 1019,5 2,1 0,2
11.11.2018 23:00:00 4,9 4,6 21 11 32 18 S 1019,8 2,2 0,0
11.11.2018 22:00:00 4,9 4,6 18 10 29 16 S 1020,2 2,0 0,0
11.11.2018 21:00:00 5,0 4,6 18 10 29 16 S 1020,6 2,5 0,0
11.11.2018 20:00:00 5,1 4,4 16 9 29 16 S 1020,9 10 0,0
11.11.2018 19:00:00 4,9 4,2 18 10 25 14 S 1021,2 10 0,0
11.11.2018 18:00:00 4,9 4,2 18 10 29 16 S 1021,5 10 0,0
11.11.2018 17:00:00 4,6 4,2 18 10 29 16 S 1021,6 5 0,0
11.11.2018 16:00:00 4,6 4,2 21 11 29 16 SSE 1022,0 3,6 0,0
11.11.2018 15:00:00 4,7 4,1 21 11 25 14 S 1022,2 10 0,0
11.11.2018 14:00:00 4,7 4,1 16 9 25 14 S 1022,5 6 0,0
11.11.2018 13:00:00 4,7 3,7 15 8 32 18 S 1023,1 10 0,0
11.11.2018 12:00:00 4,8 3,1 21 11 32 18 S 1023,1 10 0,0
11.11.2018 11:00:00 4,8 3,6 16 9 29 16 S 1023,3 10 0,0
11.11.2018 10:00:00 4,9 3,9 18 10 29 16 S 1023,4 10 0,0
11.11.2018 09:00:00 4,6 3,9 15 8 25 14 S 1023,5 10 0,0
11.11.2018 08:00:00 4,5 3,8 16 9 25 14 S 1023,5 10 0,4
11.11.2018 07:00:00 4,4 3,7 14 8 22 12 S 1023,5 20 0,1
11.11.2018 06:00:00 4,1 3,7 16 9 25 14 SSE 1023,5 10 0,0
11.11.2018 05:00:00 3,9 3,5 18 10 25 14 SSE 1023,6 5 0,3
11.11.2018 04:00:00 3,9 3,5 18 10 29 16 SSE 1024,1 5 0,2
11.11.2018 03:00:00 3,9 3,5 18 10 29 16 SSE 1024,1 8 0,0
11.11.2018 02:00:00 3,9 3,3 21 11 29 16 SSE 1024,3 10 0,6
11.11.2018 01:00:00 3,7 3,3 22 12 29 16 SSE 1024,6 3,9 0,2
11.11.2018 00:00:00 3,6 3,2 18 10 32 18 SSE 1024,7 6 0,0
10.11.2018 23:00:00 3,5 3,1 21 11 29 16 SSE 1024,8 3,5 0,2
10.11.2018 22:00:00 3,5 3,1 22 12 32 18 SSE 1024,9 5 0,1
10.11.2018 21:00:00 3,5 3,1 24 13 32 18 SSE 1024,6 3,8 0,3
10.11.2018 20:00:00 3,4 3,0 26 14 32 18 SSE 1024,7 2,8 0,3
10.11.2018 19:00:00 3,7 2,7 29 16 36 19 SSE 1024,9 8 0,0
10.11.2018 18:00:00 3,8 2,8 24 13 36 19 SE 1024,7 10 0,0
10.11.2018 17:00:00 3,5 2,6 28 15 40 21 SE 1024,7 10 0,0
10.11.2018 16:00:00 3,6 2,7 24 13 36 19 SE 1024,8 10 0,0
10.11.2018 15:00:00 3,4 2,7 26 14 40 21 SE 1024,7 10 0,1
10.11.2018 14:00:00 3,5 2,8 29 16 36 19 SE 1024,9 10 0,5
10.11.2018 13:00:00 3,7 2,8 28 15 40 21 SSE 1024,9 10 0,7
10.11.2018 12:00:00 3,9 3,2 26 14 32 18 SE 1024,8 10 0,2
10.11.2018 11:00:00 3,9 3,3 18 10 40 21 SE 1024,8 10 0,6
10.11.2018 10:00:00 4,2 3,3 26 14 40 21 SSE 1024,7 10 0,6
10.11.2018 09:00:00 4,4 4,1 18 10 25 14 SE 1024,2 9 0,5
10.11.2018 08:00:00 4,3 4,0 18 10 25 14 SE 1024,0 5 0,2
10.11.2018 07:00:00 4,2 3,9 18 10 25 14 SE 1023,8 3,0 0,0
10.11.2018 06:00:00 4,5 4,1 21 11 25 14 SE 1023,5 10 0,0
10.11.2018 05:00:00 4,6 4,3 18 10 25 14 SE 1023,5 6 0,0
10.11.2018 04:00:00 4,7 4,6 16 9 22 12 SE 1023,4 10 0,0
10.11.2018 03:00:00 4,7 4,6 15 8 22 12 SE 1023,6 8 0,2
10.11.2018 02:00:00 4,7 4,6 15 8 18 10 SE 1023,5 9 0,5
10.11.2018 01:00:00 3,2 3,1 0 0 7 4 N 1023,5 2,9 0,9
10.11.2018 00:00:00 2,7 2,6 2 1 7 4 - 1023,6 6 0,9
09.11.2018 23:00:00 2,6 2,5 2 1 7 4 - 1023,7 3,7 0,5
09.11.2018 22:00:00 2,8 2,7 0 0 4 2 N 1023,8 5 0,0
09.11.2018 21:00:00 2,7 2,6 0 0 7 4 N 1023,7 4,0 0,0
09.11.2018 20:00:00 2,4 2,3 2 1 7 4 - 1023,5 9 0,0
09.11.2018 19:00:00 2,3 2,2 2 1 7 4 - 1023,5 8 0,0
09.11.2018 18:00:00 2,2 2,0 0 0 4 2 N 1023,3 10 0,0
09.11.2018 17:00:00 2,3 2,2 0 0 4 2 N 1023,2 10 0,0
09.11.2018 16:00:00 2,2 2,1 2 1 4 2 NNW 1023,3 6 0,0
09.11.2018 15:00:00 2,2 2,1 0 0 4 2 N 1023,3 10 0,0
09.11.2018 14:00:00 2,4 2,3 0 0 7 4 N 1023,1 10 0,0
09.11.2018 13:00:00 2,4 2,3 0 0 4 2 N 1023,0 10 0,0
09.11.2018 12:00:00 2,3 2,2 0 0 4 2 N 1023,0 10 0,0
09.11.2018 11:00:00 2,0 1,9 0 0 4 2 N 1022,9 10 0,8
09.11.2018 10:00:00 1,6 1,5 0 0 4 2 N 1022,7 10 0,4
09.11.2018 09:00:00 1,3 1,2 0 0 0 0 N 1022,6 9 0,4
09.11.2018 08:00:00 1,4 1,3 0 0 4 2 N 1022,4 1,6 0,0
09.11.2018 07:00:00 1,2 1,1 2 1 7 4 - 1021,8 4,0 0,0
09.11.2018 06:00:00 1,3 1,2 0 0 4 2 N 1021,5 0,2 0,0

tt = temperature
td = dewpoint
ff = wind speed
fx = gusts
dd = wind direction
ppp = reduced air pressure
vv = visibility
rr = precipitation

Next stations